Presure
202 187 168 204 172 190 178 187 168 171 179 171 167 151 155 170 163 156 147 159 162 158 157 166 169 157 150 172 171 171 156 156 157 149 162 165 166 171 174 170 175 175 172 170 184 174 187 196 187 192 197 178 193 198
196 186 212 200 192 210 188 186 189 170 153 171 187 162 173 169 169 165 161 168 166 166 152 169 162 153 168 157 170 176 168 170 168 142 171 160 167 142 173 179 173 178 178 186 189 192 212 201 213 199 195 199 208 207
195 214 174 133 202 181 185 179 167 168 171 183 166 175 178 171 168 154 174 163 159 163 172 179 173 171 149 162 161 162 159 174 163 169 177 178 182 178 185 176 179 183 186 199 192 176 185 186 197 202 190 191 200 199
184 188 189 191 208 201 207 163 161 196 189 170 191 177 171 151 158 171 163 168 172 166 175 176 155 163 168 169 150 157 164 178 171 178 162 166 190 188 197 197 180 206 198 196 167 190 189 189 181 185 183 202 190 193
191 182 195 186 191 213 198 199 200 200 166 184 178 167 185 188 162 176 184 189 156 164 173 175 154 166 160 143 173 148 177 179 175 183 190 187 191 172 186 204 187 197 190 183 198 186 184 203 193 191 194 194 190 202
172 181 191 186 206 181 209 205 185 191 192 174 213 184 171 188 181 188 192 197 155 186 199 173 186 189 185 188 173 149 177 185 180 191 176 191 189 198 190 194 185 191 174 186 179 190 191 196 209 195 205 192 203 199
234 198 215 165 192 159 217 170 162 194 161 203 197 154 187 203 183 149 199 187 182 191 188 167 175 192 189 180 193 192 178 182 189 181 201 185 188 188 175 177 186 183 188 182 190 188 189 185 183 186 192 199 193 219
228 234 201 176 178 174 186 178 203 202 171 191 197 196 187 183 181 185 177 188 176 171 193 169 182 189 138 179 191 185 190 190 198 182 178 188 186 181 181 180 173 198 177 182 192 179 182 186 198 198 188 225 230 232
251 240 232 199 228 206 179 183 182 175 157 195 192 183 152 198 207 195 196 177 181 189 171 189 169 102 182 191 199 186 185 185 199 190 195 177 173 181 178 180 181 177 186 190 183 191 191 193 233 187 200 213 250 253
340 259 237 234 200 210 202 187 196 154 194 192 182 184 178 160 191 169 211 189 190 183 196 178 177 172 202 191 194 202 194 186 184 186 178 185 198 179 185 174 176 192 195 191 190 185 207 202 201 238 225 256 274 249
400 386 256 245 245 241 195 201 206 190 196 189 172 201 178 187 197 175 192 171 193 193 182 170 190 192 175 180 188 189 177 189 175 169 177 182 178 180 166 183 186 210 189 192 197 228 202 195 232 243 257 274 256 265
287 343 385 273 259 244 239 242 193 226 193 186 184 181 184 173 184 183 173 178 171 167 183 173 168 171 196 179 176 174 178 178 175 177 175 178 186 185 197 183 185 222 225 201 215 215 246 256 260 264 276 288 296 346
394 395 388 386 272 262 212 244 240 243 238 194 180 181 186 179 177 179 179 119 185 181 195 169 172 185 171 177 177 175 182 178 178 174 180 175 190 190 190 190 191 206 226 202 273 255 255 286 286 313 299 355 335 335
395 398 361 395 390 294 258 256 226 242 248 244 214 184 235 197 175 177 177 177 181 177 176 179 179 179 179 172 179 181 183 182 188 183 185 176 187 230 183 195 246 213 255 265 267 273 282 280 309 295 350 350 344 347
377 383 388 395 396 312 324 318 276 266 262 263 259 261 250 205 219 211 201 198 193 178 187 180 179 182 188 186 188 182 181 207 230 213 187 219 263 245 266 214 191 267 272 290 284 292 318 296 302 317 348 339 338 332
369 377 376 391 389 315 309 320 294 278 271 265 264 259 271 268 265 262 257 238 203 209 213 216 225 192 191 209 187 222 231 254 244 198 195 266 259 263 271 270 290 252 314 298 223 319 334 354 352 358 338 334 329 343
371 387 373 415 420 401 349 302 324 368 316 278 275 272 268 275 271 268 260 269 255 251 262 252 240 272 269 253 240 246 264 256 257 276 196 268 281 287 289 295 292 306 319 335 361 353 344 347 354 348 339 341 321 307
360 376 387 399 412 412 405 302 295 308 356 358 376 300 273 269 255 258 261 261 263 264 263 259 249 257 257 265 252 259 262 215 282 283 295 253 290 324 231 312 321 329 355 348 351 352 345 334 349 343 332 305 323 331
348 354 362 377 386 394 391 414 367 354 294 338 313 302 330 316 332 304 276 291 276 288 273 301 302 309 297 313 326 348 324 288 312 271 314 318 323 345 352 357 349 360 345 356 348 338 321 319 333 314 330 325 327 318
336 342 347 353 357 367 386 400 401 414 418 414 409 402 413 391 306 303 310 310 305 299 301 360 350 347 344 338 336 337 339 350 351 366 367 366 351 357 348 349 345 342 350 336 333 321 319 344 333 327 325 325 314 353
321 324 330 332 334 338 340 345 351 344 351 353 363 368 364 378 375 378 395 309 297 285 301 300 298 296 290 405 398 377 289 383 370 380 352 361 363 359 344 337 341 339 328 326 321 319 341 302 324 326 317 336 348 289
319 324 326 328 327 327 326 330 325 333 340 336 344 350 349 349 351 353 356 355 354 356 358 363 368 366 405 404 388 381 393 380 379 377 363 354 347 347 334 336 330 331 321 315 304 307 321 325 321 311 343 293 283 280
309 309 311 310 313 319 321 321 321 324 323 327 329 329 330 333 339 342 341 340 342 343 340 343 395 395 388 381 378 373 370 368 355 348 342 331 330 336 332 325 318 312 304 299 301 321 317 307 333 289 281 280 282 297
300 301 300 301 303 304 308 309 313 311 312 317 318 319 319 316 315 314 310 313 315 363 376 376 372 367 369 352 345 340 330 339 339 336 335 328 322 314 308 307 307 301 302 318 313 303 330 287 281 279 278 291 294 317
301 300 300 298 298 298 298 298 299 298 299 302 302 300 302 316 311 352 338 336 361 368 375 350 368 311 340 344 334 329 319 318 318 315 314 313 319 336 310 312 312 316 308 306 292 282 278 276 279 290 290 313 324 382
294 294 293 294 295 296 297 299 311 320 302 308 336 313 330 327 331 332 349 342 340 327 326 329 334 328 322 315 322 316 311 307 313 334 331 316 308 309 312 312 306 295 282 278 277 277 279 291 287 295 321 345 381 371
341 344 352 344 342 331 349 340 330 329 331 329 334 334 325 317 328 341 328 325 322 320 319 317 308 304 302 307 311 325 332 321 313 313 312 309 304 298 287 280 275 276 276 276 283 292 290 297 318 330 379 379 368 364
331 332 328 330 334 334 335 341 341 337 335 335 336 331 335 338 328 319 317 311 306 304 301 304 312 314 313 310 310 310 310 307 299 294 286 280 279 278 274 272 277 280 289 291 298 310 320 329 381 381 374 366 360 364
324 327 328 333 334 315 315 318 317 315 316 316 315 320 324 323 325 322 321 317 318 317 317 315 314 308 302 296 290 284 280 278 276 275 277 279 276 280 288 292 297 306 316 324 333 374 393 385 376 368 362 360 365 364
317 329 323 322 321 321 322 324 324 324 323 322 321 319 316 312 308 304 298 295 291 289 287 283 280 279 277 278 280 281 281 283 284 287 289 292 302 315 326 334 342 374 406 396 383 373 368 360 360 363 365 366 365 365
298 297 295 295 295 295 294 292 292 290 289 287 287 285 283 283 281 281 280 279 279 280 279 281 281 281 282 284 286 288 291 304 316 330 342 356 398 412 404 393 382 377 376 372 370 369 371 374 373 371 370 366 368 362
285 286 286 282 280 283 282 282 282 279 281 280 279 279 279 282 283 284 289 286 279 280 292 297 313 322 333 342 351 370 436 433 434 435 434 430 428 419 415 405 402 397 393 392 388 387 383 378 376 374 374 373 348 336
281 279 280 278 280 282 279 277 281 282 282 284 285 283 282 310 315 324 331 340 348 357 377 390 427 421 428 459 455 449 434 429 422 423 422 417 409 404 398 396 398 399 397 395 391 388 384 381 380 378 372 335 323 321
Wind_Speed
125 120 101 120 116 120 113 114 101 106 101 102 101 87 84 96 91 87 78 83 84 83 83 90 90 76 75 93 89 91 84 80 80 75 91 90 95 95 101 104 108 110 111 101 114 102 117 119 106 111 114 95 107 115
130 128 116 119 120 118 121 119 116 105 85 108 107 94 104 99 99 96 90 97 88 90 78 94 88 79 93 88 95 94 95 94 98 83 99 88 99 78 104 107 110 112 114 115 114 117 118 115 118 114 108 118 125 126
130 119 104 88 122 120 119 117 100 106 107 114 104 113 106 105 101 82 105 93 87 92 99 92 96 98 82 93 90 89 85 102 93 104 106 108 106 107 108 107 111 116 114 114 109 96 105 107 113 118 106 115 123 119
109 130 111 124 119 121 116 99 101 115 110 108 113 114 111 86 91 102 94 95 106 99 102 96 88 101 101 103 90 96 99 108 109 108 95 101 110 109 110 112 109 116 114 106 84 106 111 111 94 104 102 127 105 113
132 115 132 124 102 120 121 122 118 111 95 110 114 100 115 114 96 110 110 108 98 104 109 101 92 100 97 89 107 92 108 110 106 112 111 112 110 101 103 108 110 114 109 100 115 111 104 126 125 120 124 123 111 135
94 111 123 127 112 107 114 119 118 118 119 112 109 117 113 114 115 115 114 109 93 111 106 111 107 102 103 104 110 90 109 112 112 113 105 109 111 112 111 110 110 113 90 111 103 120 118 129 133 120 137 120 138 132
136 144 131 97 124 96 111 98 96 117 90 113 110 98 115 108 114 79 110 115 113 108 113 99 96 98 103 106 104 108 107 112 113 109 110 112 112 113 103 105 116 110 119 105 118 113 118 105 101 112 126 134 119 144
132 137 138 106 108 107 127 114 118 116 97 110 115 114 119 119 115 114 110 116 108 110 109 100 100 105 61 108 109 109 113 111 111 102 104 113 113 116 116 112 95 126 104 111 126 91 100 113 137 138 115 147 148 145
146 141 137 139 130 134 117 120 112 104 97 109 111 114 90 116 111 119 117 112 114 116 101 107 84 44 102 110 111 115 114 111 108 110 113 107 109 119 114 111 117 108 121 126 104 130 126 117 146 112 144 147 151 146
125 144 138 136 139 134 133 123 125 99 121 116 115 115 111 101 117 100 108 118 116 115 105 106 105 98 108 108 114 112 114 110 108 111 107 117 118 121 121 101 109 134 130 128 128 106 146 145 141 150 146 152 143 139
85 93 147 146 149 137 133 130 129 126 125 119 105 116 112 119 117 107 117 100 114 114 109 101 113 115 110 110 110 111 105 118 99 93 108 118 121 119 90 128 131 141 128 134 141 149 133 133 148 148 153 142 139 137
53 108 89 143 149 144 136 139 126 131 132 128 125 120 120 106 120 120 102 110 104 96 117 112 104 105 118 112 109 104 109 107 100 106 106 118 129 125 136 122 123 147 148 146 138 145 148 148 147 151 144 134 121 75
61 66 78 90 142 145 124 142 137 139 135 132 113 118 123 114 115 119 118 65 125 118 125 102 108 124 103 114 116 111 120 114 112 101 119 102 134 137 136 134 140 150 146 129 146 141 141 140 138 122 125 71 80 75
49 53 79 66 74 130 145 144 125 138 141 141 132 118 133 134 103 107 114 117 127 114 112 118 117 120 122 107 124 122 115 119 130 127 131 104 131 143 105 120 143 140 144 147 144 142 136 134 121 121 70 66 67 64
46 49 54 56 60 110 112 121 146 147 144 147 146 147 137 136 132 130 133 140 137 119 133 124 120 128 134 129 135 121 127 141 138 144 134 140 137 144 138 146 119 146 143 137 137 136 122 122 116 86 63 65 64 65
44 47 50 51 56 98 111 108 130 140 144 145 141 132 141 138 138 137 135 134 142 133 134 140 130 138 138 137 135 136 133 142 137 147 121 139 132 137 142 141 141 137 130 130 110 115 90 65 63 56 62 63 63 62
34 32 44 37 43 56 71 104 98 83 116 138 141 143 135 140 140 138 133 135 125 126 134 125 126 140 135 127 119 122 141 136 138 145 108 136 139 136 136 134 132 126 116 92 62 64 67 62 55 56 59 57 60 62
26 25 27 30 32 36 46 94 100 99 85 85 81 120 130 139 122 133 138 137 138 139 139 136 121 135 138 145 133 142 144 131 143 139 134 126 129 112 103 115 110 98 60 63 60 59 58 60 54 55 58 62 60 60
23 24 26 28 32 39 41 44 60 67 93 78 90 97 90 96 91 113 123 118 131 124 129 115 115 121 127 118 111 100 110 122 118 108 113 111 108 82 66 55 60 55 59 54 57 57 59 60 57 60 56 58 58 57
20 22 24 26 28 30 30 32 36 38 37 39 40 46 42 53 93 95 92 92 94 96 95 81 86 89 91 93 94 95 94 83 78 61 54 54 59 51 55 52 53 55 52 55 54 55 57 55 56 56 56 56 56 60
22 23 24 25 26 27 29 31 32 36 39 43 42 44 48 47 49 49 45 82 86 90 87 88 89 90 90 39 40 45 93 46 50 45 54 46 41 43 48 52 51 50 54 53 53 55 55 56 55 56 55 59 58 57
20 21 22 22 24 26 28 30 35 36 35 39 39 38 40 41 42 43 42 44 46 49 50 49 47 47 37 36 38 41 39 41 39 37 36 39 42 43 48 48 52 50 50 51 51 54 56 55 54 55 59 56 57 58
18 19 21 23 24 25 28 29 30 32 33 34 35 36 39 40 40 41 41 44 45 45 46 46 28 27 28 29 30 30 31 32 34 36 39 45 47 45 46 47 48 49 50 51 53 55 54 55 56 55 57 58 59 61
17 19 20 20 22 25 25 27 28 30 32 33 34 36 36 37 37 38 42 44 45 31 27 25 26 28 25 26 29 34 41 35 37 39 40 42 43 45 46 47 49 50 52 54 54 55 55 55 57 58 59 60 62 63
18 20 22 24 26 26 27 29 30 31 32 33 34 35 37 36 37 23 29 31 23 25 25 29 25 43 32 29 34 36 40 40 40 42 44 45 48 50 48 50 52 53 53 54 54 55 56 58 59 60 61 64 64 46
21 22 24 24 26 27 29 30 29 27 32 30 22 30 26 28 27 27 23 22 21 26 26 26 27 30 33 36 36 38 40 41 44 47 46 45 47 48 50 51 52 52 53 55 57 58 59 60 61 63 65 61 45 43
11 11 10 12 13 18 16 17 20 20 21 22 23 23 25 28 26 23 24 26 27 27 29 30 33 34 36 38 40 44 45 44 45 46 47 48 48 49 50 51 53 55 57 59 60 61 62 64 66 66 50 44 42 40
9 8 8 9 12 14 17 20 21 22 22 23 23 23 24 24 23 24 26 28 29 30 32 34 38 39 41 42 43 44 44 45 45 46 47 49 51 52 54 55 57 59 61 62 64 66 66 66 51 45 43 42 40 37
6 7 7 8 11 12 14 15 17 18 19 21 23 24 25 25 26 27 28 30 31 33 35 36 38 39 40 42 42 44 45 46 48 49 51 53 55 56 58 60 62 64 65 66 66 58 46 43 43 42 41 39 36 33
7 9 8 9 10 11 13 14 15 17 18 19 21 22 23 24 25 27 28 30 31 33 35 36 38 40 42 43 45 47 48 49 51 53 55 57 60 63 65 66 67 59 47 45 45 45 44 44 43 40 37 35 33 31
7 8 9 9 10 11 12 14 15 17 18 20 22 23 25 27 28 29 31 33 35 36 38 39 41 43 45 47 49 51 53 56 59 61 63 65 54 49 48 48 48 47 45 44 43 42 40 38 37 35 34 32 31 27
9 10 11 12 13 15 16 18 19 21 23 24 26 27 29 31 33 35 38 39 39 41 44 47 52 54 56 58 59 59 44 44 42 40 39 38 37 37 35 35 35 35 34 33 33 33 33 33 33 32 31 29 25 25
14 15 17 18 19 21 22 24 26 28 30 32 33 34 35 41 44 46 49 50 51 53 50 46 39 40 39 32 31 30 30 30 30 29 28 28 29 29 29 30 29 29 30 30 29 30 30 30 30 30 28 25 26 27
Wind_Direction
233 240 241 239 244 243 248 248 249 252 252 256 258 257 261 265 266 267 265 272 275 277 282 285 286 287 286 292 292 295 296 300 300 293 305 300 309 307 309 313 311 312 313 318 314 315 313 313 318 320 320 325 326 324
230 237 233 238 242 238 245 247 247 251 248 257 256 260 262 265 267 270 272 273 274 278 275 282 287 282 288 285 291 293 298 297 301 290 303 303 306 300 309 307 310 307 309 310 310 311 311 316 313 319 322 324 321 321
230 231 240 244 238 244 244 247 247 251 253 253 257 260 261 264 266 264 269 272 274 277 279 277 283 286 278 288 291 295 294 297 297 301 301 301 302 304 302 307 306 304 305 305 310 316 321 321 318 318 324 327 324 326
232 235 232 237 233 238 241 247 247 247 248 253 253 256 260 257 260 265 267 268 273 275 276 276 278 283 283 286 292 290 296 295 297 297 299 300 297 302 300 300 306 301 306 310 313 316 319 320 324 325 325 321 326 327
231 233 232 238 235 235 239 242 243 244 242 250 255 255 256 257 263 264 265 266 271 275 275 275 276 280 283 283 286 288 290 291 291 294 292 296 295 301 304 301 304 304 309 311 310 319 321 313 320 323 325 327 326 323
222 231 233 236 231 237 234 239 247 247 247 250 248 255 258 257 262 262 265 263 264 268 268 274 274 274 278 279 287 282 289 289 294 291 297 296 298 298 303 302 305 307 310 314 318 314 316 315 313 320 317 325 321 323
226 229 226 234 235 229 231 241 248 244 241 246 250 258 255 251 259 268 260 266 270 267 269 271 272 275 277 283 280 280 285 288 288 293 291 297 299 300 302 305 307 310 310 311 313 316 318 321 323 324 324 321 321 318
225 227 229 231 232 235 239 243 237 240 250 246 248 248 253 257 259 260 267 265 263 272 270 272 276 279 278 283 281 282 282 286 286 293 297 297 298 299 301 303 308 302 312 314 310 317 319 318 314 316 319 312 314 318
226 226 228 230 231 229 236 238 236 240 239 244 248 254 261 253 253 255 257 265 267 268 272 277 275 275 277 276 274 279 282 287 286 290 290 297 300 298 300 303 306 309 308 308 315 312 316 315 307 316 315 314 316 317
221 224 228 230 232 233 230 238 233 247 239 241 249 249 254 251 257 258 253 261 262 269 268 277 277 277 273 275 277 275 279 285 289 290 295 294 290 298 298 305 307 303 303 307 310 315 307 310 314 307 311 313 315 318
226 225 228 231 234 232 235 237 237 241 235 241 247 245 251 253 253 257 259 265 263 264 269 273 268 268 276 277 278 280 286 284 293 296 295 293 295 298 302 303 304 296 307 307 307 300 310 315 307 308 310 312 315 315
226 221 225 226 231 232 233 235 239 236 241 242 244 248 250 255 254 257 261 264 266 268 264 268 273 276 269 278 281 284 287 289 291 292 294 295 295 299 295 301 305 295 296 302 302 304 303 304 307 307 308 310 311 307
222 224 225 226 229 233 231 236 238 237 239 241 246 249 248 251 255 257 259 263 261 265 262 271 274 271 279 279 281 284 284 288 289 291 293 294 294 296 297 300 303 298 296 306 303 303 303 306 306 309 309 305 308 307
216 219 224 223 224 229 237 238 236 241 243 243 239 249 247 247 257 259 261 262 262 266 270 271 274 276 277 281 281 282 283 286 286 289 290 295 294 286 300 300 293 296 298 301 300 301 303 305 307 307 306 307 308 310
213 215 218 219 219 229 233 234 237 241 243 245 246 248 248 247 250 252 256 254 257 266 266 271 274 274 274 277 278 281 285 280 278 281 288 289 291 292 295 294 301 297 297 299 300 301 305 304 306 307 308 309 310 311
214 215 216 215 215 227 232 235 236 239 242 244 247 249 252 253 254 255 256 256 257 258 260 266 268 268 270 273 275 275 279 278 285 279 288 289 290 292 293 294 295 296 298 298 303 302 305 307 309 311 309 310 311 313
217 221 218 215 214 213 229 235 237 235 241 243 246 248 252 255 256 257 257 260 261 261 266 265 267 273 274 273 272 278 281 283 285 288 290 290 291 290 291 292 293 295 297 298 302 303 305 309 310 309 309 310 310 309
213 213 214 216 214 213 216 234 238 241 237 242 244 250 252 253 255 256 259 262 264 266 268 270 271 273 277 278 279 281 283 274 282 284 285 283 287 290 289 291 293 295 298 299 303 305 309 308 307 307 308 307 309 313
204 206 207 208 210 208 224 223 233 241 244 246 247 249 250 251 253 253 258 259 260 261 266 269 271 269 271 271 273 274 276 279 280 280 282 284 287 289 291 293 292 296 297 301 303 307 304 305 305 307 307 308 312 312
207 208 209 211 214 220 224 225 230 231 235 238 239 245 247 249 254 256 258 259 260 262 265 266 267 267 268 270 272 274 276 276 277 278 280 283 284 285 286 291 294 297 297 302 304 301 305 303 304 305 307 310 310 318
210 213 212 213 218 221 224 226 229 233 234 238 238 239 245 246 251 254 257 260 261 263 264 265 266 268 269 257 262 271 275 273 275 277 280 281 280 280 288 291 292 295 298 300 303 305 302 302 304 307 308 314 316 309
214 218 221 223 225 226 228 232 235 238 241 244 247 249 252 254 256 258 260 262 263 263 264 266 267 268 260 260 268 270 270 271 276 276 277 281 284 285 286 289 293 297 298 299 299 301 301 304 305 305 313 306 307 308
219 219 219 222 226 229 234 236 240 244 248 252 255 256 257 259 260 262 263 264 265 267 269 271 261 261 263 267 272 276 275 274 276 278 280 281 283 286 290 293 294 295 296 298 300 300 301 301 309 303 303 305 307 312
230 230 233 236 238 239 242 244 246 247 249 251 252 255 258 260 261 261 260 260 262 265 265 264 262 267 267 267 267 269 272 278 280 282 284 285 286 287 288 293 296 296 298 297 297 297 304 299 300 301 303 308 310 313
230 231 234 235 239 242 244 246 248 250 253 255 256 256 258 261 262 263 260 264 278 283 282 273 271 269 266 266 268 271 274 278 281 283 287 289 290 286 289 292 293 294 293 294 295 296 296 298 301 305 306 309 312 311
244 246 249 252 255 256 257 258 255 254 262 261 256 263 258 261 263 265 273 270 272 263 268 273 275 273 275 276 281 281 283 285 288 286 285 288 290 289 290 290 290 291 293 294 294 295 298 302 303 305 308 310 309 309
204 212 207 227 238 250 238 247 254 260 262 258 260 260 260 262 270 269 267 271 273 274 275 276 276 279 283 286 287 285 284 285 286 286 287 287 287 287 289 290 290 291 292 293 296 299 300 302 304 306 305 305 305 305
212 214 225 235 232 237 240 242 244 249 256 261 264 266 268 261 262 268 271 276 279 281 283 283 283 283 284 285 285 285 284 284 284 285 286 287 287 287 288 289 290 292 294 296 298 299 300 302 299 299 300 300 302 303
240 235 236 243 247 255 261 263 266 267 269 269 271 270 270 272 273 275 276 279 280 280 279 279 278 278 279 279 281 282 283 283 284 285 285 286 287 289 291 292 293 294 295 296 296 294 292 293 294 294 296 297 298 299
262 270 273 271 271 271 272 272 270 269 268 269 271 273 275 276 277 277 276 276 276 277 277 278 278 277 279 280 281 283 284 286 286 287 289 290 292 292 292 293 293 292 289 289 290 290 290 291 291 291 292 292 293 294
278 277 275 275 273 273 272 272 271 270 270 270 270 270 271 272 272 272 273 274 276 277 279 281 282 283 284 285 286 287 288 290 291 291 292 292 289 288 288 289 290 289 289 289 288 288 287 285 286 287 286 287 288 287
274 277 276 272 271 275 275 276 276 276 277 277 278 279 281 283 285 285 287 286 284 284 288 289 289 290 290 291 291 290 291 290 290 289 289 289 288 289 290 290 289 289 288 286 285 282 281 282 282 283 284 284 282 287
284 284 285 286 286 286 286 287 286 287 288 288 288 288 288 289 289 289 289 289 289 289 290 292 294 292 294 299 299 299 298 297 298 297 296 296 295 296 295 293 292 291 289 288 286 285 283 282 282 282 281 285 291 294